星链-32426 (STARLINK-32426)

导读 | 星芒AI

STARLINK-32426 是 SpaceX Starlink 卫星互联网项目中的一颗低轨卫星,属于第三代星链卫星(v1.5 或 v2 版本)。该卫星由猎鹰 9 号火箭发射入轨,旨在为全球用户提供高速、低延迟的宽带互联网服务。它运行在约 550 公里的轨道高度,配备先进推进系统和激光通信设备,以提升网络效率和稳定性。作为 Starlink 卫星群的一部分,STARLINK-32426 有助于扩展覆盖范围,特别是在偏远和网络基础设施薄弱的地区。

基本信息
目录编号:
61681
目录名称:
STARLINK-32426
国际标识:
2024-193W
轨道中心:
EARTH
卫星名称:
星链-32426
卫星全名:
星链-32426 (STARLINK-32426)
卫星状态:
在轨 (已飞行420 天)
发射日期:
2024-10-26 UTC
国别 :
美国 (US)
星等 :
--
轨道信息
数据来源 国际轨道数据 AOE轨道数据
星历时间 2025-12-19T00:59:24+0800
1天前
查看轨道信息
2025-12-18T06:00:00+0800
2天前
查看轨道信息
半长轴 6853.374km 6853.334km
偏心率 0.0001142 0.0001378
轨道倾角 53.161° 53.159°
近地点辐角 91.680° 83.457°
升交点赤经 107.463° 111.138°
平近点角 268.433° 235.478°
近地点 474.456km 474.254km
远地点 476.022km 476.144km
周期 94.106分钟 94.105分钟
每日圈数 15.301929 15.302063
详细信息
固有亮度:
5
最大亮度:
2.5
卫星平台:
Starlink V1.0
覆盖范围:
全球
运营商:
太空探索技术公司
运营商所在国:
美国
制造商(研发单位):
太空探索技术公司
制造商所在国:
美国
使用方式:
暂无
卫星简介
Starlink 计划是 SpaceX 推出的全球卫星互联网项目,通过发射低轨道卫星,为全球尤其是偏远地区提供高速、低延迟的互联网服务。自 2019 年起,Starlink 已部署数千颗卫星,旨在缩小全球数字鸿沟,推动互联网普及。该项目还为军事、航空等行业提供通信支持,带来广泛经济效益。
2D轨道图
3D轨道图
轨道高度分析图
轨道倾角分析图
轨道综合分析图
查看轨道综合分析图